Voltar ao catálogo

COSMOS 970 DEB

AtivoLEO
NORAD 10577·DEBRIS·🇷🇺 Russia

Lançado Dec 21, 1977 de Baikonur Cosmodrome

Loading…

Próximas Passagens (próximas 24 horas)

TLE

AtualizadoSource: Space-Track

Época: Sep 14, 2026, 03:58 UTC

1 10577U 77121U   26257.16574257  .00000058  00000-0  14760-3 0  9991
2 10577  65.7943 134.6627 0143124 269.0684 172.2574 13.69211931429992

Acompanhe COSMOS 970 DEB em tempo real com AllMySat

Download on the App Store